Regional Weather Roundup
Issued by NWS Kansas City/Pleasant Hill, MO

Home | Current Version | Previous Version | Text Only | Print | Product List | Glossary On
Versions: 1 2 3 4 5 6 7 8 9 10 11 12 13 14 15 16 17 18 19 20 21 22 23 24 25 26 27 28 29 30 31 32 33 34 35 36 37 38 39 40 41 42 43 44 45 46 47 48 49 50
000
ASUS43 KEAX 030310
RWREAX

WEATHER ROUNDUP FOR EASTERN KANSAS AND NORTHWEST MISSOURI
NATIONAL WEATHER SERVICE KANSAS CITY/PLEASANT HILL MO
1000 PM CDT WED SEP 02 2015

KSZ040-057-103>105-MOZ028-029-037-043-030400-
...KANSAS CITY METROPOLITAN AREA...

CITY           SKY/WX    TMP DP  RH WIND       PRES   REMARKS
K.C. INTL      CLEAR     74  69  85 S9        29.96R
K.C. DOWNTOWN  CLEAR     81  69  67 S7        29.94R
LEES SUMMIT    CLEAR     80  68  66 S7        29.97R
OLATHE - IXD   CLEAR     74  69  85 S6        29.97R
OLATHE - OJC   CLEAR     75  69  81 S6        29.96R
LAWRENCE       CLEAR     74  69  85 SE7       29.94R

$$

MOZ001>008-011>017-020>025-030>033-038>040-044>046-053-054-030400-
...NORTHERN AND CENTRAL MISSOURI...

CITY           SKY/WX    TMP DP  RH WIND       PRES   REMARKS
ST. JOSEPH     CLEAR     77  70  79 S8        29.93R
MOSBY            N/A     77  68  73 CALM      29.96R
WARRENSBURG    CLEAR     75  68  78 SE3       29.97R
WHITEMAN AFB   PTCLDY    75  67  78 S5        29.97R
CLINTON        CLEAR     77  70  78 CALM      29.98S
SEDALIA        CLEAR     74  69  85 S6        29.99R
WARSAW         NOT AVBL
CHILLICOTHE      N/A     79  70  74 S7        29.97R
KIRKSVILLE     MOCLDY    78  69  73 S10       29.98R

$$

MOZ041-047>049-056>058-063>065-088>090-097-030400-
...EASTERN AND SOUTHERN MISSOURI...

CITY           SKY/WX    TMP DP  RH WIND       PRES   REMARKS
ST. LOUIS INTL PTCLDY    83  69  62 S5        30.01S
SPIRIT OF STL  CLEAR     74  73  97 CALM      29.99S
COLUMBIA       CLEAR     74  68  81 S8        30.00R
JEFFERSON CITY CLEAR     76  66  71 E3        29.98S
ROLLA          CLEAR     73  67  81 SE7       30.02R
OSAGE BEACH    CLEAR     75  64  69 SE5       30.01S
SPRINGFIELD    CLEAR     76  67  73 S7        30.02R
BRANSON        CLEAR     75  64  69 CALM      30.05R
JOPLIN         CLEAR     76  69  79 S7        30.00
WEST PLAINS    CLEAR     73  68  84 CALM      30.06R

$$

IAZ060-094-KSZ022-034>040-054-083-096-NEZ052-066-093-030400-
...KANSAS...SOUTHEAST NEBRASKA AND IOWA...

CITY           SKY/WX    TMP DP  RH WIND       PRES   REMARKS
TOPEKA         CLEAR     79  69  71 SE9       29.93R
MANHATTAN      CLEAR     82  67  60 S9        29.89R
EMPORIA        CLEAR     77  67  71 S10       29.94R
CHANUTE        CLEAR     76  70  82 S8        29.97R
WICHITA        PTCLDY    80  66  62 S14       29.92R
OMAHA          PTCLDY    82  71  69 S13       29.87R
LINCOLN        CLEAR     81  68  64 S9        29.86R
FALLS CITY     CLEAR     77  70  79 SE9       29.90R
LAMONI         CLOUDY    78  70  76 S7        29.95R
DES MOINES     PTCLDY    77  70  79 S8        29.91S

$$



USA.gov is the U.S. government's official web portal to all federal, state and local government web resources and services.